Weather in Boykovo

Russia / Tver Oblast     56°26′09″N   35°02′55″E
temp.,
°C
wind,
m/s
gust,
m/s
humid.,
%
clouds,
%
prec.,
mm/h
press.,
hPa
HPBL,
m
16 january, sun
sun1600:00−3nw51193100 0.1 10061008
03:00−4nw51290100 0.3 1008779
06:00−4nw51188100 0.1 1008612
09:00−6wnw41092100 0.1 1010393
12:00−5wnw478993 0.0 1011498
15:00−6wsw499170 0.0 1010376
18:00−6sw5129282 0.0 1008345
21:00−7sw6149486 0.0 1004432
17 january, mon
mon1700:00−4sw61591100 0.1 1000503
03:00−3sw71793100 0.2 995647
06:00−4sw71594100 1.2 990760
09:00−3sw61492100 1.8 986702
12:00−2ssw61492100 0.3 983785
15:00−1ssw61396100 0.9 981904
18:00−1ssw51195100 0.3 981551
21:00−1ssw3797100 0.6 981318
18 january, tue
tue1800:00−4sw4797100 1.4 984333
03:00−4n81594100 5.7 989851
06:00−7n91892100 1.5 994828
09:00−8n71687100 1.7 1001783
12:00−8n71588100 0.1 1005782
15:00−8nnw61488100 0.1 1009734
18:00−9nnw61489100 0.0 1012607
21:00−9nnw51489100 0.1 1015551
19 january, wed
wed1900:00−11nnw4109286 0.0 1017315
03:00−14nw379522 0.0 1018144
06:00−16wnw259727 0.0 101982
09:00−17wsw229867 0.0 101924
12:00−10sw238849 0.0 1017136
15:00−9ssw369014 0.0 1016202
18:00−10ssw399281 0.0 1015195
21:00−8ssw4995100 0.1 1013249
20 january, thu
thu2000:00−8ssw4109583 0.0 1012259
03:00−8ssw4119597 0.1 1010295
06:00−6ssw51294100 0.1 1008359
09:00−6s51393100 0.2 1007419
12:00−5s61393100 0.1 1007494
15:00−4s61392100 0.1 1006600
18:00−5s61392100 0.1 1005591
21:00−5s61391100 0.2 1005591